Location: Enborne
(51.3833°N, 1.3667°W)
Time: 16:09:50
(UTC+00:00)

Terra - Pass Details

Date: 18 September 2020
Orbit: 701 x 703 km, 98.2° (Epoch: 31 October)

Event Time Altitude Azimuth Distance (km) Brightness Sun altitude
Exits shadow 20:18:52 17° 57° (ENE) 1,758 3.6 -19.7°
Maximum altitude 20:19:00 17° 55° (NE) 1,758 3.6 -19.7°
Drops below altitude 10° 20:22:00 10° 16° (NNE) 2,185 4.5 -20.1°
Sets 20:24:58 0° 357° (N) 3,108 5.6 -20.5°
